Torna al catalogo

STARLINK-34852

AttivoComunicazioniVLEO
NORAD 66135·PAYLOAD·🇺🇸 United States

Lanciato Oct 22, 2025 da Vandenberg Space Force Base

Loading…

Prossimi Passaggi (prossime 24 ore)

TLE

AggiornatoSource: CelesTrak SupGP

Epoca: Sep 14, 2026, 15:10 UTC

1 66135C 25237X   26257.63243056 -.00098207  00000+0 -29003-2 0  2571
2 66135  53.1585 240.8868 0001278  76.3780 304.7415 15.34453372    17

Traccia STARLINK-34852 in tempo reale con AllMySat

Download on the App Store